Location: Foligno
(42.9600°N, 12.7050°E)
Time: 08:10:42
(UTC+02:00)

ISS - Pass Details

Date: 21 July 2018
Orbit: 402 x 408 km, 51.6° (Epoch: 16 July)

Event Time Altitude Azimuth Distance (km) Brightness Sun altitude
Rises 04:35:41 0° 298° (WNW) 2,330 -0.2 -11.6°
Reaches altitude 10° 04:37:50 10° 291° (WNW) 1,467 -1.3 -11.4°
Maximum altitude 04:40:57 40° 220° (SW) 610 -3.4 -10.9°
Drops below altitude 10° 04:44:02 10° 149° (SSE) 1,460 -1.1 -10.5°
Sets 04:46:11 0° 142° (SE) 2,316 0.0 -10.2°
